Regional Weather Roundup
Issued by NWS

Home | Current Version | Previous Version | Text Only | Print | Product List | Glossary On
Versions: 1 2 3 4 5 6 7 8 9 10 11 12 13 14 15 16 17 18 19 20 21 22 23 24 25 26 27 28 29 30 31 32 33 34 35 36 37 38 39 40 41 42 43 44 45 46 47 48 49 50
000
ASUS43 KTOP 100808
RWRKS

WEATHER ROUNDUP FOR KANSAS
NATIONAL WEATHER SERVICE GOODLAND KS
200 AM CST SAT DEC 10 2016

NOTE:  "FAIR" INDICATES FEW OR NO CLOUDS BELOW 12,000 FEET WITH NO
SIGNIFICANT WEATHER AND/OR OBSTRUCTIONS TO VISIBILITY.

KSZ001>006-013>018-027>032-041>047-100900-
NORTHWEST KANSAS

CITY           SKY/WX    TMP DP  RH WIND       PRES   REMARKS
GOODLAND       CLOUDY    23  19  85 S7        30.13F
HAYS           CLOUDY    15  11  83 SE7       30.33F
HILL CITY      CLOUDY    21  13  71 SE5       30.30F
RUSSELL        CLOUDY    19  13  77 S12       30.34F WCI   7
$$

KSZ061>065-074>080-084>089-100900-
SOUTHWEST KANSAS

CITY           SKY/WX    TMP DP  RH WIND       PRES   REMARKS
DODGE CITY     CLOUDY    19  14  81 S12       30.26F WCI   7
ELKHART          N/A     20  12  71 SE14        N/A  WCI   7
GARDEN CITY    CLOUDY    19  13  77 SE12      30.21F WCI   7
GREAT BEND     CLOUDY    16  12  84 SE5       30.36F
LIBERAL        CLOUDY    21  12  68 E9        30.20F
PRATT          CLOUDY    18  11  73 SE7       30.34F
$$

KSZ066>073-081>083-090>101-100900-
SOUTHEAST KANSAS

CITY           SKY/WX    TMP DP  RH WIND       PRES   REMARKS
CHANUTE        CLOUDY    30  17  58 CALM      30.48R
COFFEYVILLE    CLOUDY    31  21  66 CALM      30.50R
HUTCHINSON     CLEAR     25  13  60 SE6       30.40F
MEDICINE LODGE   N/A     20  13  74 E7        30.37F
NEWTON         CLOUDY    20  14  77 SE8       30.42F
PARSONS        CLOUDY    31  18  58 CALM      30.49R
WICHITA INTL   CLOUDY    21  13  71 SE7       30.42F
WICHITA JABRA  CLOUDY    20  14  77 SE5       30.43F
WICHITA MCCONL CLOUDY    23  13  68 SE5       30.42F
WINFIELD       CLOUDY    22  14  71 CALM      30.45F
$$

KSZ007>012-019>026-033>040-048>060-102>105-100900-
NORTHEAST KANSAS

CITY           SKY/WX    TMP DP  RH WIND       PRES   REMARKS
CONCORDIA      CLOUDY    18  14  84 SE5       30.40F
EMPORIA        CLOUDY    24  17  74 SE5       30.45F
LAWRENCE       CLOUDY    22  17  81 E5        30.50R
MANHATTAN      CLOUDY    28  14  55 S6        30.45F
MARYSVILLE     CLOUDY    27  18  69 CALM      30.44S
OLATHE IND     CLOUDY    26  15  63 SE5       30.49S
OLATHE EXE     CLOUDY    25  12  58 CALM      30.49R
SALINA         CLOUDY    25  16  68 S6        30.43F
TOPEKA BILLARD PTCLDY    22  14  71 SE3       30.48F
TOPEKA FORBES  CLEAR     22  15  75 SE5       30.47F
$$




USA.gov is the U.S. government's official web portal to all federal, state and local government web resources and services.